Regional Weather Roundup
Issued by NWS Memphis, TN

Home | Current Version | Previous Version | Text Only | Print | Product List | Glossary On
Versions: 1 2 3 4 5 6 7 8 9 10 11 12 13 14 15 16 17 18 19 20 21 22 23 24 25 26 27 28 29 30 31 32 33 34 35 36 37 38 39 40 41 42 43 44 45 46 47 48 49 50
000
ASUS44 KMEG 161610
RWRMEG
MEMPHIS CWA HOURLY WEATHER ROUNDUP
NATIONAL WEATHER SERVICE MEMPHIS TN
1000 AM CST MON JAN 16 2017

...WEST TENNESSEE...

CITY           SKY/WX    TMP DP  RH WIND       PRES   REMARKS
MEMPHIS INTL   CLOUDY    61  59  93 S14       30.14F
NWS MEMPHIS      N/A     60 N/A N/A MISG        N/A
JACKSON        CLOUDY    64  56  75 S8        30.17S
BOLIVAR        PTSUNNY   63  55  77 SE12      30.18R
DYERSBURG      CLOUDY    57  52  82 S7        30.15F
UNION CITY     MOSUNNY  N/A N/A N/A CALM      30.15S
PARIS          CLOUDY    52  52 100 CALM      30.19R
HUNTINGDON     CLOUDY    59  55  88 S7        30.18S


...EASTERN ARKANSAS...

CITY           SKY/WX    TMP DP  RH WIND       PRES   REMARKS
JONESBORO      CLOUDY    50  50 100 CALM      30.11S
WEST MEMPHIS   CLOUDY    60  59  96 S16       30.11F
BATESVILLE     CLOUDY    48  46  93 SE8       30.08F
NEWPORT        CLOUDY    53  53 100 SE12      30.09
WALNUT RIDGE   CLOUDY    50  46  87 E6        30.09S
BLYTHEVILLE    CLOUDY    59  55  87 S10       30.14S
SEARCY         LGT RAIN  54  54 100 E5        30.08F VSB 3/4
STUTTGART      CLOUDY    57  54  88 SE16      30.09S
PINE BLUFF     LGT RAIN  59  58  96 SE16      30.06F
MONTICELLO     LGT RAIN  62  60  93 SE10      30.09F


...NORTH MISSISSIPPI...

CITY           SKY/WX    TMP DP  RH WIND       PRES   REMARKS
TUPELO         MOSUNNY   62  56  80 SE7       30.21R
OXFORD         CLOUDY    59  55  88 S10       30.20S
BATESVILLE     CLOUDY    62  59  88 S5        30.17F
OLIVE BRANCH   CLOUDY   N/A N/A N/A S12G17    30.15S
TUNICA         CLOUDY    59  55  88 SE9       30.13F
CLARKSDALE     SUNNY     63  63 100 SE13      30.13F
CORINTH        CLOUDY    64  55  72 S7        30.20S
GREENWOOD      PTSUNNY   68  59  73 S13       30.16R
STARKVILLE     SUNNY     66  59  77 S12       30.22S
GOLDEN TRIANGL MOSUNNY   66  54  63 S12       30.18R


...SOUTHEAST MISSOURI...

CITY           SKY/WX    TMP DP  RH WIND       PRES   REMARKS
KENNETT        CLOUDY    54  54 100 SE6       30.12F FOG
WEST PLAINS    FOG       49  48  97 SE7       30.06S VSB<1/4
POPLAR BLUFF   LGT RAIN  47  47 100 CALM      30.12F FOG
CAPE GIRARDEAU CLOUDY    51  48  89 S6        30.14S


...NORTHWEST ALABAMA...

CITY           SKY/WX    TMP DP  RH WIND       PRES   REMARKS
MUSCLE SHOALS  MOSUNNY   65  53  65 SE6       30.25S


...MIDDLE TENNESSEE...

CITY           SKY/WX    TMP DP  RH WIND       PRES   REMARKS
NASHVILLE      CLOUDY    58  52  80 S3        30.25S
CLARKSVILLE    CLOUDY    50  49  96 SW3       30.23R FOG
COLUMBIA       PTSUNNY   63  63 100 S7        30.22S


...WESTERN KENTUCKY...

CITY           SKY/WX    TMP DP  RH WIND       PRES   REMARKS
PADUCAH        CLOUDY    51  49  92 SE8       30.16F
FORT CAMPBELL  DRIZZLE   50  50 100 CALM      30.22R


...CENTRAL ARKANSAS...

CITY           SKY/WX    TMP DP  RH WIND       PRES   REMARKS
LITTLE ROCK    FOG       55  55 100 SE10      30.05R VSB 1


SKY/WX REPORTED AS FAIR MEANS FEW OR NO CLOUDS BELOW
12 THOUSAND FEET.




USA.gov is the U.S. government's official web portal to all federal, state and local government web resources and services.